CT1AKV-10 Weather Reports


time (UTC)temp
C
wind
direction
speed
KPH
gust
KPH
rain 1hr
cm
rain 24hr
cm
rain mn
cm
humidity
%
barometer
mb
20181209223002 10 0 0.0 0.0 0.00 0.00 0.00 99 1022.5
20181209221503 10 0 0.0 0.0 0.00 0.00 0.00 99 1022.6
20181209220009 11 0 0.0 0.0 0.00 0.00 0.00 99 1022.8
20181209214502 11 0 0.0 0.0 0.00 0.00 0.00 99 1022.8
20181209213003 11 0 0.0 0.0 0.00 0.00 0.00 99 1022.8
20181209210002 11 0 0.0 0.0 0.00 0.00 0.00 99 1022.8
20181209204501 11 0 0.0 0.0 0.00 0.00 0.00 91 1022.8
20181209203002 11 0 0.0 0.0 0.00 0.00 0.00 62 1022.7
20181209201501 11 0 0.0 0.0 0.00 0.00 0.00 51 1022.6
20181209200002 12 0 0.0 0.0 0.00 0.00 0.00 32 1022.7
20181209193001 12 0 0.0 0.0 0.00 0.00 0.00 13 1022.7
20181209191502 12 0 0.0 0.0 0.00 0.00 0.00 10 1022.6
20181209190002 12 0 0.0 0.0 0.00 0.00 0.00 10 1022.6
20181209184501 13 0 0.0 0.0 0.00 0.00 0.00 10 1022.5
20181209183002 13 0 0.0 0.0 0.00 0.00 0.00 10 1022.5
20181209181502 13 0 0.0 1.6 0.00 0.00 0.00 10 1022.3
20181209180001 13 0 0.0 1.6 0.00 0.00 0.00 10 1022.3
20181209174501 14 0 0.0 1.6 0.00 0.00 0.00 10 1022.3
20181209171501 14 0 0.0 0.0 0.00 0.00 0.00 10 1022.0
20181209170001 15 0 0.0 0.0 0.00 0.00 0.00 10 1022.0
20181209164501 15 0 0.0 0.0 0.00 0.00 0.00 10 1022.1
20181209163002 16 0 0.0 0.0 0.00 0.00 0.00 10 1022.0
20181209161502 17 0 0.0 0.0 0.00 0.00 0.00 10 1022.0
20181209160002 17 0 0.0 0.0 0.00 0.00 0.00 10 1021.9
20181209154501 18 0 0.0 0.0 0.00 0.00 0.00 10 1021.9
20181209153002 18 0 0.0 1.6 0.00 0.00 0.00 10 1022.0
20181209151501 18 0 0.0 1.6 0.00 0.00 0.00 10 1022.0
20181209144501 19 0 0.0 3.2 0.00 0.00 0.00 10 1022.2
20181209143001 21 0 0.0 0.0 0.00 0.00 0.00 10 1022.3
20181209141502 22 0 0.0 0.0 0.00 0.00 0.00 10 1022.4
20181209140001 22 0 0.0 0.0 0.00 0.00 0.00 10 1022.8
20181209134501 23 0 0.0 0.0 0.00 0.00 0.00 10 1022.9
20181209133001 23 0 0.0 0.0 0.00 0.00 0.00 10 1022.9
20181209131501 23 0 0.0 0.0 0.00 0.00 0.00 10 1023.1
20181209130002 23 0 0.0 0.0 0.00 0.00 0.00 10 1023.4
20181209124501 22 0 0.0 0.0 0.00 0.00 0.00 10 1023.4
20181209123001 22 0 0.0 0.0 0.00 0.00 0.00 10 1023.6
20181209121501 21 0 0.0 0.0 0.00 0.00 0.00 10 1024.0
20181209120001 18 0 0.0 0.0 0.00 0.00 0.00 10 1024.2
20181209114502 20 0 0.0 0.0 0.00 0.00 0.00 10 1024.2
20181209113001 20 0 0.0 0.0 0.00 0.00 0.00 10 1024.6
20181209111501 18 0 0.0 0.0 0.00 0.00 0.00 10 1024.8
20181209110001 16 0 0.0 0.0 0.00 0.00 0.00 10 1025.0
20181209104501 18 0 0.0 0.0 0.00 0.00 0.00 10 1024.9
20181209103001 18 0 0.0 0.0 0.00 0.00 0.00 28 1025.0